Regional Weather Roundup
Issued by NWS Cleveland, OH

Home | Current Version | Previous Version | Text Only | Print | Product List | Glossary Off
Versions: 1 2 3 4 5 6 7 8 9 10 11 12 13 14 15 16 17 18 19 20 21 22 23 24 25 26 27 28 29 30 31 32 33 34 35 36 37 38 39 40 41 42 43 44 45 46 47 48 49 50

000
ASUS41 KCLE 280110
RWRCLE
OHIO REGIONAL WEATHER ROUNDUP
NATIONAL WEATHER SERVICE WILMINGTON, OH
900 PM EDT THU AUG 27 2015

NOTE: "FAIR" INDICATES FEW OR NO CLOUDS BELOW 12,000 FEET WITH NO
SIGNIFICANT WEATHER AND/OR OBSTRUCTIONS TO VISIBILITY.

OHZ001>008-015>018-024>027-034-035-043-044-280200-
   NORTHWEST OHIO

CITY           SKY/WX    TMP DP  RH WIND       PRES   REMARKS
DEFIANCE       CLEAR     65  56  72 NE3       30.17R
FINDLAY        CLEAR     66  57  72 NE8       30.16R
TOLEDO EXPRESS PTCLDY    60  55  83 NE3       30.17R
TOLEDO EXEC    CLEAR     63  54  72 CALM      30.18R
LIMA           CLEAR     60  57  89 CALM      30.17R
$$

OHZ009>014-019>023-028>033-038-089-280200-
   NORTHEAST OHIO

CITY           SKY/WX    TMP DP  RH WIND       PRES   REMARKS
CLE-HOPKINS    PTCLDY    62  54  74 NE5       30.20R
CLE-LAKEFRONT  CLEAR     65  55  70 MISG      30.17R
CUY CO. ARPT   PTCLDY    61  55  82 N6        30.19R
LORAIN-ELYRIA  CLEAR     59  55  87 NE3       30.19R
ASHTABULA      CLEAR     56  54  93 CALM      30.20R
AKRON-CANTON   PTCLDY    63  54  72 N7        30.18R
WOOSTER        CLEAR     62  54  74 N6        30.18R
MANSFIELD      PTCLDY    62  56  80 N6        30.18R
YOUNGSTOWN     PTCLDY    62  54  74 N7        30.18R
$$

OHZ042-051>053-060>062-070>072-077>081-280200-
  SOUTHWEST OHIO

CITY           SKY/WX    TMP DP  RH WIND       PRES   REMARKS
CINC-COVINGTON PTCLDY    69  55  60 CALM      30.15R
CINC-LUNKEN    CLEAR     63  60  90 CALM      30.15R
HAMILTON       CLEAR     61  57  87 CALM      30.15R
DAYTON         PTCLDY    67  57  70 N6        30.17R
WRIGHT-PAT AFB CLEAR     67  58  74 CALM      30.15R
DAYTON GENERAL PTCLDY    67  55  65 SE3       30.15R
WILMINGTON     CLEAR     63  57  81 CALM      30.16R
$$

OHZ036-037-039>041-045>050-054>059-063>069-073>076-082>088-280200-
  CENTRAL AND SOUTHEAST OHIO

CITY           SKY/WX    TMP DP  RH WIND       PRES   REMARKS
COLUMBUS       PTCLDY    68  54  60 CALM      30.14R
OSU AIRPORT    PTCLDY    66  53  63 N5        30.15R
BOLTON FIELD   CLOUDY    65  60  83 NW3       30.16R
RICKENBACK AFB PTCLDY    65  56  71 CALM      30.14R
NEWARK         CLOUDY    64  58  80 CALM      30.15R
MARION         PTCLDY    64  57  78 NE8       30.16R
LANCASTER      CLEAR     59  56  89 SE5       30.15R
ZANESVILLE     CLOUDY    69  55  60 CALM      30.15R
NEW PHILLY     CLOUDY    65  57  75 CALM      30.17R
$$



USA.gov is the U.S. government's official web portal to all federal, state and local government web resources and services.